User: anonymous   Login
Location: Unspecified
(0.0000°N, 0.0000°E)
Time: 10:35:39
(UTC+00:00)
Language:

SO-67 - Orbit

View from above orbital plane
View from above orbital plane
View from above satellite
View from above satellite

Ground track
Ground track

The orbit data is extracted from the following two-line orbital elements,

1 35870U 09049F   16268.85593899  .00007222  00000-0  13020-3 0  9996
2 35870  97.1169 282.4130 0002180  75.2764  47.4861 15.50067727392071
Epoch (UTC): 24 September 2016 20:32:33
Eccentricity: 0.0002180
inclination: 97.1169°
perigee height: 415 km
apogee height: 418 km
right ascension of ascending node: 282.4130°
argument of perigee: 75.2764°
revolutions per day: 15.50067727
mean anomaly at epoch: 47.4861°
orbit number at epoch: 39207

The dashed part of the orbit path shows where the satellite is in the earth's shadow,  

DLR